1491807600.38,22374,14.13,73974.8,12.59,-23.75,-25.03,0,*45
1491807601.62,22375,14.13,73974.3,12.61,-23.43,-24.87,0,*47
1491807602.84,22376,14.13,73970.5,12.61,-24.05,-25.49,0,*42
1491807604.11,22377,14.13,73968.3,12.61,-24.25,-25.71,0,*4A
1491807605.34,22378,14.13,73972.8,12.61,-23.89,-25.29,0,*49
1491807606.58,22379,14.13,73972.0,12.61,-23.85,-25.19,0,*47
1491807607.79,22380,14.13,73972.8,12.61,-23.75,-25.19,0,*4E
1491807609.03,22381,14.13,73968.8,12.61,-23.43,-24.87,0,*4C
1491807610.27,22382,14.13,73970.5,12.63,-24.05,-25.49,0,*4B
1491807611.56,22383,14.13,73968.3,12.63,-24.11,-25.55,0,*42
1491807612.77,22384,14.13,73968.8,12.65,-23.79,-25.13,0,*48
1491807614.06,22385,14.13,73970.0,12.67,-23.85,-25.29,0,*41
1491807615.32,22386,14.13,73972.5,12.65,-23.85,-25.45,0,*4A
1491807616.53,22387,14.13,73968.5,12.65,-23.79,-25.19,0,*41
1491807617.77,22388,14.13,73970.3,12.65,-23.85,-25.19,0,*4D
1491807619.03,22389,14.13,73972.0,12.65,-23.99,-25.45,0,*48
1491807620.26,22390,14.13,73966.0,12.65,-23.99,-25.35,0,*47
1491807621.5,22391,14.13,73970.3,12.65,-23.85,-25.19,0,*45
1491807622.76,22392,14.13,73974.8,12.65,-23.99,-25.45,0,*42
1491807624.0,22393,14.13,73968.0,12.65,-24.15,-25.49,0,*4C
1491807625.24,22394,14.13,73968.8,12.65,-23.49,-24.97,0,*47
1491807626.44,22395,14.13,73970.0,12.65,-23.39,-24.93,0,*45
1491807627.68,22396,14.13,73970.0,12.67,-23.59,-24.97,0,*46
1491807628.97,22397,14.13,73970.8,12.67,-23.99,-25.55,0,*44
1491807630.23,22398,14.13,73970.5,12.69,-24.11,-25.71,0,*44
1491807631.49,22399,14.13,73968.3,12.69,-24.15,-25.55,0,*47
1491807632.78,22400,14.13,73968.5,12.67,-24.11,-25.55,0,*4A
1491807634.04,22401,14.13,73970.3,12.69,-23.85,-25.29,0,*44
1491807635.31,22402,14.13,73966.8,12.67,-24.71,-26.23,0,*4C
1491807636.54,22403,14.13,73970.3,12.69,-24.11,-25.61,0,*40
1491807637.83,22404,14.13,73968.5,12.67,-23.99,-25.45,0,*48
1491807639.08,22405,14.13,73970.5,12.69,-23.95,-25.45,0,*4B
1491807640.32,22406,14.13,73968.8,12.69,-24.57,-25.97,0,*4E
1491807641.58,22407,14.06,73966.8,12.67,-24.41,-25.87,0,*47
1491807642.85,22408,14.13,73966.3,12.67,-24.57,-25.97,0,*4E
1491807644.08,22409,14.13,73968.5,12.65,-25.03,-26.61,0,*47
1491807645.34,22410,14.13,73970.3,12.65,-25.29,-26.81,0,*49
1491807646.6,22411,14.13,73970.3,12.67,-25.97,-27.55,0,*47
1491807647.86,22412,14.13,73970.3,12.63,-24.83,-25.87,0,*49
1491807649.06,22413,14.13,73966.3,12.65,-23.39,-24.97,0,*48
1491807650.3,22414,14.06,73964.0,12.65,-23.79,-25.29,0,*4F
1491807651.52,22415,14.13,73970.0,12.65,-24.31,-25.91,0,*46
1491807652.73,22416,14.13,73970.8,12.65,-24.97,-26.61,0,*45
1491807653.95,22417,14.13,73970.3,12.65,-24.05,-25.49,0,*46
1491807655.2,22418,14.13,73970.5,12.63,-23.69,-25.19,0,*47
1491807656.45,22419,14.13,73964.3,12.63,-23.85,-25.23,0,*4D
1491807657.69,22420,14.13,73970.8,12.63,-23.75,-25.23,0,*48
1491807658.93,22421,14.13,73968.8,12.65,-24.31,-25.81,0,*40
1491807660.19,22422,14.13,73970.8,12.63,-23.85,-25.23,0,*45
1491807661.41,22423,14.13,73972.0,12.65,-24.51,-26.03,0,*4D
1491807662.67,22424,14.13,73970.3,12.63,-24.83,-26.23,0,*41
1491807663.96,22425,14.13,73970.5,12.63,-24.83,-26.33,0,*41
1491807665.22,22426,14.13,73968.0,12.63,-24.67,-26.07,0,*4F
1491807666.47,22427,14.13,73970.8,12.63,-25.09,-26.81,0,*49
1491807667.69,22428,14.13,73968.5,12.61,-26.03,-27.51,0,*41
1491807668.94,22429,14.13,73970.3,12.59,-24.87,-26.29,0,*4B
1491807670.15,22430,14.13,73968.8,12.59,-23.79,-25.13,0,*4F
1491807671.39,22431,14.13,73968.0,12.61,-23.95,-25.49,0,*48
1491807672.68,22432,14.13,73968.8,12.63,-24.11,-25.55,0,*4F
1491807673.92,22433,14.13,73972.0,12.61,-23.95,-25.49,0,*4A
1491807675.15,22434,14.13,73972.5,12.61,-24.97,-26.55,0,*46
1491807676.42,22435,14.13,73970.0,12.61,-24.21,-25.55,0,*49
1491807677.68,22436,14.13,73970.0,12.61,-24.41,-26.17,0,*49
1491807678.89,22437,14.13,73970.0,12.61,-26.03,-27.55,0,*4B
1491807680.1,22438,14.13,73968.3,12.59,-25.91,-27.29,0,*4C
1491807681.35,22439,14.13,73974.3,12.57,-25.35,-26.81,0,*4E
1491807682.58,22440,14.13,73968.0,12.57,-25.09,-26.49,0,*4B
1491807683.85,22441,14.13,73966.0,12.57,-24.35,-25.75,0,*48
1491807685.05,22442,14.13,73972.0,12.59,-24.57,-25.91,0,*4B
1491807686.34,22443,14.13,73970.3,12.57,-24.83,-26.17,0,*40
1491807687.6,22444,14.13,73968.8,12.59,-24.71,-26.13,0,*40
1491807688.86,22445,14.13,73970.5,12.55,-24.83,-26.29,0,*49
1491807690.1,22446,14.13,73968.3,12.57,-24.51,-26.07,0,*4B
1491807691.38,22447,14.13,73970.5,12.57,-25.29,-26.93,0,*49
1491807692.64,22448,14.13,73972.0,12.57,-24.15,-25.49,0,*4C
1491807693.92,22449,14.13,73968.8,12.57,-23.69,-25.29,0,*47
1491807695.17,22450,14.13,73970.5,12.57,-23.39,-24.83,0,*4B
1491807696.43,22451,14.13,73974.5,12.57,-23.53,-25.19,0,*44
1491807697.64,22452,14.13,73968.5,12.59,-24.31,-25.87,0,*4D
1491807698.86,22453,14.13,73970.5,12.59,-24.15,-25.87,0,*4A
1491807700.13,22454,14.13,73972.5,12.61,-24.25,-25.81,0,*43
1491807701.39,22455,14.13,73970.8,12.59,-24.15,-25.75,0,*41
1491807702.61,22456,14.13,73970.8,12.61,-24.35,-26.03,0,*49
1491807703.84,22457,14.13,73970.5,12.59,-24.25,-25.87,0,*4D
1491807705.04,22458,14.13,73972.3,12.59,-24.77,-26.23,0,*48
1491807706.28,22459,14.13,73972.3,12.57,-24.35,-25.91,0,*4B
1491807707.55,22460,14.13,73970.0,12.57,-24.47,-25.97,0,*42
1491807708.81,22461,14.13,73974.0,12.57,-24.15,-25.65,0,*49
1491807710.04,22462,14.13,73968.0,12.57,-25.65,-27.13,0,*4F
1491807711.29,22463,14.13,73972.5,12.55,-25.29,-26.93,0,*4D
1491807712.49,22464,14.13,73970.8,12.55,-25.65,-27.13,0,*4B
1491807713.74,22465,14.13,73970.8,12.55,-25.81,-27.35,0,*44
1491807714.96,22466,14.13,73972.5,12.53,-25.23,-26.87,0,*41
1491807716.22,22467,14.13,73970.5,12.53,-25.55,-27.03,0,*4C
1491807717.49,22468,14.13,73972.0,12.51,-24.71,-26.13,0,*46
1491807718.75,22469,14.13,73972.0,12.53,-24.41,-25.87,0,*48
1491807720.01,22470,14.13,73970.0,12.53,-24.25,-25.65,0,*4E
1491807721.25,22471,14.13,73974.0,12.51,-24.35,-25.81,0,*46
1491807722.45,22472,14.06,73968.3,12.51,-25.19,-26.65,0,*43
1491807723.68,22473,14.13,73972.0,12.51,-24.97,-26.33,0,*46
1491807724.93,22474,14.13,73972.8,12.53,-24.83,-26.23,0,*47
1491807726.16,22475,14.13,73972.5,12.51,-25.23,-26.71,0,*48
1491807727.36,22476,14.13,73970.5,12.51,-25.19,-26.65,0,*47
1491807728.59,22477,14.13,73972.3,12.51,-24.57,-25.97,0,*43
1491807729.81,22478,14.13,73974.8,12.51,-24.57,-26.03,0,*42
1491807731.04,22479,14.13,73972.8,12.49,-25.09,-26.45,0,*42
1491807732.26,22480,14.13,73970.0,12.49,-25.19,-26.61,0,*43
1491807733.53,22481,14.13,73968.8,12.49,-25.03,-26.39,0,*44
1491807734.77,22482,14.13,73970.0,12.49,-24.61,-26.03,0,*4B
1491807736.0,22483,14.13,73972.8,12.45,-24.61,-26.07,0,*42
1491807737.24,22484,14.13,73972.5,12.45,-24.51,-26.07,0,*46
1491807738.51,22485,14.13,73968.8,12.45,-24.61,-25.97,0,*4E
1491807739.8,22486,14.13,73968.3,12.49,-24.71,-26.17,0,*4B
1491807741.06,22487,14.13,73970.8,12.45,-24.35,-25.81,0,*4A
1491807742.33,22488,14.13,73972.0,12.49,-24.31,-25.75,0,*46
1491807743.63,22489,14.13,73970.5,12.49,-24.25,-25.71,0,*46
1491807744.9,22490,14.13,73970.5,12.49,-24.71,-26.07,0,*4D
1491807746.13,22491,14.13,73972.5,12.45,-24.97,-26.45,0,*4E
1491807747.42,22492,14.13,73970.5,12.45,-24.83,-26.13,0,*4B
1491807748.67,22493,14.13,73968.3,12.49,-24.93,-26.29,0,*4E
1491807749.93,22494,14.13,73968.5,12.45,-24.77,-26.29,0,*4F
1491807751.17,22495,14.13,73970.5,12.49,-24.57,-26.03,0,*48
1491807752.42,22496,14.13,73972.5,12.45,-24.93,-26.29,0,*47
1491807753.68,22497,14.13,73970.0,12.45,-24.83,-26.23,0,*4D
1491807754.94,22498,14.13,73970.5,12.45,-25.29,-26.65,0,*41
1491807756.16,22499,14.13,73968.3,12.45,-25.09,-26.45,0,*40
1491807757.39,22500,14.13,73970.3,12.43,-25.29,-26.65,0,*47
1491807758.59,22501,14.13,73968.8,12.43,-24.97,-26.49,0,*4C
1491807759.84,22502,14.13,73972.5,12.41,-24.57,-26.17,0,*4A
1491807761.07,22503,14.13,73968.0,12.43,-24.83,-26.23,0,*47
1491807762.3,22504,14.13,73970.0,12.43,-25.09,-26.33,0,*42
1491807763.56,22505,14.13,73968.0,12.41,-25.03,-26.49,0,*46
1491807764.81,22506,14.13,73972.0,12.43,-25.29,-26.81,0,*4B
1491807766.05,22507,14.13,73968.8,12.41,-25.49,-27.03,0,*45
1491807767.33,22508,14.13,73970.0,12.41,-25.97,-27.35,0,*4C
1491807768.6,22509,14.13,73970.5,12.41,-25.49,-26.97,0,*47
1491807769.83,22510,14.13,73970.3,12.41,-25.49,-27.03,0,*43
1491807771.06,22511,14.13,73972.3,12.37,-25.61,-27.03,0,*49
1491807772.27,22512,14.13,73968.8,12.39,-25.61,-27.07,0,*40
1491807773.55,22513,14.13,73970.3,12.37,-26.71,-28.21,0,*46
1491807774.82,22514,14.13,73970.5,12.37,-25.45,-26.93,0,*42
1491807776.08,22515,14.13,73968.0,12.39,-25.71,-27.23,0,*40
1491807777.34,22516,14.13,73968.5,12.37,-25.35,-26.77,0,*4D
1491807778.6,22517,14.13,73970.0,12.37,-26.33,-27.89,0,*49
1491807779.85,22518,14.13,73970.3,12.33,-26.71,-28.37,0,*4E
1491807781.14,22519,14.13,73968.5,12.33,-25.81,-27.19,0,*40
1491807782.37,22520,14.13,73970.8,12.33,-26.45,-28.15,0,*42
1491807783.58,22521,14.13,73966.8,12.31,-26.03,-27.51,0,*4C
1491807784.86,22522,14.13,73970.8,12.29,-25.03,-26.55,0,*40
1491807786.06,22523,14.13,73968.3,12.31,-25.49,-26.87,0,*49
1491807787.3,22524,14.13,73968.8,12.31,-24.77,-26.33,0,*4D
1491807788.57,22525,14.13,73968.5,12.31,-24.71,-25.97,0,*47
1491807789.8,22526,14.13,73966.8,12.31,-23.99,-25.49,0,*46
1491807791.04,22527,14.13,73970.0,12.31,-24.35,-25.71,0,*4D
1491807792.24,22528,14.13,73970.5,12.31,-24.57,-25.87,0,*4F
1491807793.5,22529,14.13,73970.5,12.33,-23.89,-25.45,0,*46
1491807794.75,22530,14.13,73968.3,12.33,-24.05,-25.49,0,*41
1491807796.01,22531,14.13,73972.3,12.35,-24.67,-26.13,0,*4E
1491807797.26,22532,14.13,73966.3,12.33,-25.03,-26.49,0,*47
1491807798.47,22533,14.13,73968.0,12.35,-24.97,-26.39,0,*4B
1491807799.67,22534,14.13,73968.8,12.35,-25.09,-26.49,0,*4D
1491807800.93,22535,14.13,73968.8,12.35,-24.67,-26.29,0,*43
1491807802.17,22536,14.13,73968.5,12.35,-24.51,-25.97,0,*43
1491807803.46,22537,14.13,73970.0,12.33,-24.87,-26.33,0,*42
1491807804.67,22538,14.13,73970.3,12.35,-24.51,-25.87,0,*4C
1491807805.93,22539,14.13,73966.3,12.37,-24.05,-25.45,0,*40
1491807807.17,22540,14.13,73970.0,12.35,-23.99,-25.49,0,*42
1491807808.4,22541,14.13,73966.8,12.35,-24.35,-25.81,0,*46
1491807809.64,22542,14.13,73966.3,12.35,-23.99,-25.39,0,*47
1491807810.87,22543,14.13,73970.5,12.37,-24.47,-25.91,0,*42
1491807812.11,22544,14.13,73970.3,12.37,-24.47,-25.87,0,*42
1491807813.32,22545,14.13,73968.3,12.39,-24.57,-26.03,0,*43
1491807814.56,22546,14.13,73968.0,12.39,-24.87,-26.39,0,*44
1491807815.82,22547,14.13,73968.0,12.37,-24.31,-25.75,0,*4D
1491807817.09,22548,14.13,73966.5,12.39,-24.25,-25.45,0,*4A
1491807818.32,22549,14.13,73970.8,12.37,-24.47,-25.91,0,*48
1491807819.56,22550,14.13,73966.3,12.39,-24.61,-26.17,0,*47
1491807820.78,22551,14.13,73964.8,12.37,-25.39,-26.87,0,*4D
1491807822.01,22552,14.13,73968.3,12.39,-25.23,-26.55,0,*44
1491807823.25,22553,14.13,73966.8,12.37,-24.31,-25.61,0,*4D
1491807824.54,22554,14.13,73970.8,12.37,-24.71,-26.17,0,*4C
1491807825.8,22555,14.13,73970.5,12.39,-24.11,-25.55,0,*40
1491807827.03,22556,14.13,73964.0,12.37,-24.57,-25.91,0,*47
1491807828.3,22557,14.13,73964.5,12.37,-24.71,-26.23,0,*48
1491807829.51,22558,14.13,73968.5,12.39,-24.47,-25.87,0,*41
1491807830.78,22559,14.13,73970.8,12.37,-24.41,-25.61,0,*40
1491807832.04,22560,14.13,73970.8,12.39,-24.41,-25.71,0,*45
1491807833.29,22561,14.13,73968.8,12.39,-24.21,-25.61,0,*43
1491807834.52,22562,14.13,73970.3,12.39,-25.39,-26.93,0,*46
1491807835.8,22563,14.13,73974.3,12.37,-24.87,-26.33,0,*47
1491807837.06,22564,14.13,73968.8,12.37,-24.61,-26.17,0,*4E
1491807838.27,22565,14.13,73968.8,12.39,-24.47,-26.03,0,*40
1491807839.53,22566,14.13,73970.5,12.37,-23.95,-25.39,0,*4F
1491807840.79,22567,14.13,73970.3,12.37,-24.05,-25.45,0,*4B
1491807842.03,22568,14.13,73970.0,12.39,-24.41,-25.87,0,*44
1491807843.29,22569,14.13,73968.0,12.39,-24.11,-25.55,0,*4F
1491807844.54,22570,14.13,73970.3,12.39,-25.03,-26.55,0,*46
1491807845.77,22571,14.13,73974.3,12.37,-24.61,-25.91,0,*47
1491807846.98,22572,14.13,73966.5,12.39,-24.47,-25.91,0,*4E
1491807848.24,22573,14.13,73970.0,12.39,-24.87,-26.17,0,*4E
1491807849.47,22574,14.13,73970.0,12.39,-25.03,-26.45,0,*43
1491807850.75,22575,14.13,73970.3,12.37,-24.87,-26.33,0,*40
1491807852.04,22576,14.13,73968.0,12.37,-24.21,-25.55,0,*4C
1491807853.27,22577,14.13,73968.5,12.37,-23.89,-25.35,0,*4E
1491807854.53,22578,14.13,73970.5,12.39,-24.21,-25.45,0,*4D
1491807855.76,22579,14.13,73968.5,12.37,-24.61,-26.07,0,*43
1491807856.97,22580,14.13,73970.5,12.39,-24.47,-25.91,0,*43
1491807858.24,22581,14.13,73974.5,12.37,-24.21,-25.61,0,*43
1491807859.46,22582,14.13,73970.3,12.39,-24.57,-26.03,0,*48
1491807860.69,22583,14.13,73974.0,12.37,-24.47,-25.87,0,*49
1491807861.93,22584,14.13,73970.0,12.37,-24.47,-25.87,0,*4E
1491807863.2,22585,14.13,73968.5,12.37,-24.21,-25.61,0,*47
1491807864.41,22586,14.13,73968.5,12.39,-24.05,-25.35,0,*4D
1491807865.66,22587,14.13,73966.8,12.37,-23.65,-25.09,0,*4C
1491807866.9,22588,14.13,73970.8,12.39,-23.49,-25.09,0,*43
1491807868.11,22589,14.13,73970.3,12.39,-24.05,-25.39,0,*4E
1491807869.35,22590,14.13,73972.0,12.43,-24.21,-25.65,0,*44
1491807870.59,22591,14.13,73968.5,12.39,-24.21,-25.91,0,*43
1491807871.79,22592,14.13,73968.5,12.39,-25.87,-27.51,0,*43
1491807873.03,22593,14.13,73970.3,12.39,-26.07,-27.61,0,*4A
1491807874.27,22594,14.13,73968.8,12.37,-25.09,-26.55,0,*48
1491807875.53,22595,14.13,73970.0,12.37,-24.61,-26.17,0,*40
1491807876.79,22596,14.13,73968.8,12.35,-24.67,-26.29,0,*4A
1491807878.02,22597,14.13,73966.0,12.35,-25.81,-27.55,0,*48
1491807879.25,22598,14.13,73968.5,12.35,-25.91,-27.39,0,*4C
1491807880.49,22599,14.13,73974.5,12.33,-25.49,-27.03,0,*47
1491807881.77,22600,14.13,73970.5,12.33,-25.45,-26.97,0,*44
1491807883.01,22601,14.13,73966.5,12.33,-25.49,-27.03,0,*45
1491807884.24,22602,14.13,73968.0,12.31,-26.17,-27.71,0,*49
1491807885.5,22603,14.13,73968.0,12.29,-26.77,-28.53,0,*48
1491807886.76,22604,14.13,73968.0,12.29,-26.17,-27.67,0,*41
1491807888.01,22605,14.13,73968.5,12.23,-26.29,-27.83,0,*4D
1491807889.27,22606,14.13,73970.8,12.27,-25.29,-26.81,0,*4A
1491807890.47,22607,14.13,73968.5,12.23,-24.47,-25.91,0,*44
1491807891.71,22608,14.13,73968.5,12.23,-24.47,-25.97,0,*4D
1491807892.94,22609,14.13,73968.3,12.27,-25.19,-26.77,0,*4F
1491807894.14,22610,14.13,73970.8,12.23,-25.23,-26.65,0,*49
1491807895.34,22611,14.13,73970.0,12.23,-24.93,-26.39,0,*4B
1491807896.57,22612,14.13,73968.8,12.23,-24.15,-25.61,0,*48
1491807897.85,22613,14.13,73966.5,12.27,-24.25,-25.71,0,*4F
1491807899.09,22614,14.13,73970.8,12.23,-24.25,-25.65,0,*49
1491807900.33,22615,14.13,73968.8,12.27,-24.35,-25.75,0,*4C
1491807901.56,22616,14.13,73972.5,12.23,-23.95,-25.39,0,*4E
1491807902.83,22617,14.13,73972.8,12.27,-24.11,-25.55,0,*4A
1491807904.04,22618,14.13,73968.3,12.23,-24.31,-25.65,0,*40
1491807905.26,22619,14.13,73972.3,12.27,-24.77,-26.07,0,*40
1491807906.45,22620,14.13,73968.5,12.23,-24.93,-26.39,0,*49
1491807907.68,22621,14.13,73970.3,12.23,-24.67,-25.91,0,*42
1491807908.95,22622,14.13,73968.5,12.27,-24.25,-25.55,0,*4B
1491807910.18,22623,14.13,73968.8,12.23,-23.99,-25.39,0,*44
1491807911.46,22624,14.13,73968.3,12.29,-23.65,-25.03,0,*43
1491807912.71,22625,14.13,73968.3,12.27,-24.11,-25.49,0,*46
1491807913.94,22626,14.13,73968.8,12.29,-23.89,-25.19,0,*48
1491807915.19,22627,14.13,73970.0,12.29,-24.87,-26.39,0,*41
1491807916.41,22628,14.13,73968.0,12.27,-24.61,-26.03,0,*41
1491807917.66,22629,14.13,73972.3,12.27,-24.21,-25.49,0,*49
1491807918.89,22630,14.13,73968.8,12.29,-23.43,-24.77,0,*40
1491807920.12,22631,14.13,73968.8,12.29,-23.13,-24.47,0,*47
1491807921.33,22632,14.13,73968.5,12.31,-23.75,-25.19,0,*47
1491807922.62,22633,14.13,73968.8,12.33,-23.53,-24.71,0,*4F
1491807923.87,22634,14.13,73972.0,12.31,-23.69,-25.03,0,*47
1491807925.11,22635,14.13,73970.3,12.31,-24.21,-25.49,0,*43
1491807926.37,22636,14.13,73968.8,12.29,-24.25,-25.35,0,*46
1491807927.59,22637,14.13,73968.5,12.31,-23.75,-25.13,0,*48
1491807928.83,22638,14.13,73970.8,12.31,-24.21,-25.49,0,*4E
1491807930.07,22639,14.13,73968.5,12.31,-24.51,-25.97,0,*4B
1491807931.29,22640,14.13,73968.5,12.31,-24.15,-25.35,0,*4D
1491807932.51,22641,14.13,73974.0,12.31,-24.35,-25.65,0,*4B
1491807933.75,22642,14.13,73968.8,12.33,-24.05,-25.49,0,*47
1491807935.0,22643,14.13,73970.3,12.31,-23.19,-24.41,0,*47
1491807936.26,22644,14.13,73968.8,12.33,-23.03,-24.31,0,*4E
1491807937.5,22645,14.13,73968.0,12.35,-23.53,-24.93,0,*44
1491807938.74,22646,14.13,73968.5,12.35,-24.25,-25.49,0,*47
1491807939.97,22647,14.13,73972.0,12.37,-24.77,-26.23,0,*4C
1491807941.2,22648,14.13,73968.5,12.33,-24.97,-26.45,0,*49
1491807942.48,22649,14.13,73966.8,12.33,-24.67,-26.17,0,*40
1491807943.72,22650,14.13,73968.5,12.33,-25.49,-27.03,0,*41
1491807944.93,22651,14.13,73968.5,12.31,-24.57,-26.03,0,*4D
1491807946.17,22652,14.13,73968.0,12.31,-23.85,-25.13,0,*44
1491807947.37,22653,14.13,73972.3,12.31,-23.09,-24.35,0,*44
1491807948.63,22654,14.13,73970.0,12.33,-22.87,-24.21,0,*43
1491807949.86,22655,14.13,73968.8,12.35,-23.03,-24.31,0,*48
1491807951.08,22656,14.13,73972.5,12.35,-23.39,-24.67,0,*41
1491807952.31,22657,14.13,73970.8,12.35,-23.33,-24.61,0,*4C
1491807953.54,22658,14.13,73968.0,12.35,-23.33,-24.51,0,*40
1491807954.78,22659,14.13,73974.0,12.37,-23.75,-25.23,0,*45
1491807956.03,22660,14.13,73968.5,12.37,-25.03,-26.61,0,*4D
1491807957.28,22661,14.13,73972.0,12.37,-25.35,-26.77,0,*4E
1491807958.49,22662,14.13,73970.8,12.35,-25.49,-27.07,0,*42
1491807959.76,22663,14.13,73970.0,12.33,-25.55,-27.03,0,*4C
1491807961.05,22664,14.13,73970.5,12.33,-25.55,-26.97,0,*47
1491807962.32,22665,14.13,73970.8,12.33,-25.71,-27.29,0,*44
1491807963.58,22666,14.13,73968.0,12.31,-25.55,-26.97,0,*47
1491807964.8,22667,14.13,73970.0,12.31,-25.19,-26.71,0,*46
1491807966.0,22668,14.13,73970.3,12.31,-25.35,-26.87,0,*4E
1491807967.27,22669,14.13,73968.0,12.29,-25.03,-26.55,0,*4C
1491807968.51,22670,14.13,73970.3,12.29,-24.47,-25.87,0,*49
1491807969.74,22671,14.13,73968.8,12.27,-25.61,-27.23,0,*4F
1491807970.94,22672,14.13,73964.8,12.23,-25.65,-27.07,0,*4A
1491807972.17,22673,14.13,73970.3,12.27,-25.19,-26.55,0,*42
1491807973.36,22674,14.13,73972.8,12.23,-24.93,-26.45,0,*43
1491807974.63,22675,14.13,73970.5,12.21,-25.81,-27.45,0,*43
1491807975.86,22676,14.13,73972.3,12.21,-25.35,-26.65,0,*4C
1491807977.11,22677,14.13,73970.8,12.21,-24.87,-26.49,0,*4B
1491807978.36,22678,14.13,73968.5,12.21,-24.87,-26.49,0,*44
1491807979.61,22679,14.13,73970.5,12.21,-25.35,-26.81,0,*49
1491807980.84,22680,14.13,73970.8,12.19,-25.03,-26.61,0,*4F
1491807982.08,22681,14.13,73972.3,12.21,-25.45,-26.87,0,*4F
1491807983.29,22682,14.13,73970.8,12.19,-25.65,-27.03,0,*48
1491807984.57,22683,14.13,73968.3,12.17,-25.55,-26.93,0,*4C
1491807985.81,22684,14.13,73970.0,12.17,-25.49,-26.87,0,*43
1491807987.03,22685,14.13,73970.3,12.15,-25.39,-26.71,0,*4E
1491807988.32,22686,14.13,73968.8,12.17,-24.87,-26.33,0,*4D
1491807989.58,22687,14.13,73966.8,12.17,-24.21,-25.65,0,*40
1491807990.82,22688,14.13,73970.8,12.17,-24.51,-25.87,0,*44
1491807992.06,22689,14.13,73970.5,12.19,-24.21,-25.65,0,*40
1491807993.32,22690,14.13,73968.8,12.17,-24.87,-26.39,0,*40
1491807994.54,22691,14.13,73964.5,12.17,-25.19,-26.65,0,*4E
1491807995.77,22692,14.13,73970.3,12.15,-25.03,-26.45,0,*46
1491807996.99,22693,14.13,73970.3,12.15,-25.23,-26.71,0,*42
1491807998.26,22694,14.13,73970.8,12.17,-24.71,-26.07,0,*40
1491807999.53,22695,14.13,73968.8,12.15,-24.41,-25.75,0,*46
1491808000.73,22696,14.13,73968.5,12.15,-24.77,-26.23,0,*40
1491808001.99,22697,14.13,73970.3,12.15,-23.99,-25.29,0,*4F
1491808003.23,22698,14.13,73970.5,12.17,-24.51,-25.87,0,*45
1491808004.43,22699,14.13,73968.0,12.15,-24.61,-25.91,0,*42
1491808005.67,22700,14.13,73966.3,12.15,-24.67,-26.07,0,*49
1491808006.91,22701,14.13,73968.3,12.17,-25.23,-26.71,0,*4A
1491808008.14,22702,14.13,73968.8,12.17,-24.57,-25.91,0,*46
1491808009.4,22703,14.13,73970.8,12.17,-25.03,-26.39,0,*46
1491808010.63,22704,14.13,73968.0,12.15,-24.67,-26.07,0,*4D
1491808011.9,22705,14.13,73970.8,12.17,-24.35,-25.71,0,*4B
1491808013.1,22706,14.13,73970.5,12.15,-24.97,-26.45,0,*46
1491808014.35,22707,14.13,73968.3,12.17,-25.09,-26.55,0,*42
1491808015.57,22708,14.13,73970.0,12.15,-25.23,-26.71,0,*41
1491808016.78,22709,14.13,73968.0,12.15,-24.77,-26.23,0,*47
1491808018.02,22710,14.13,73968.0,12.17,-24.61,-26.03,0,*48
1491808019.28,22711,14.13,73970.3,12.15,-24.83,-26.29,0,*4F
1491808020.51,22712,14.13,73970.5,12.15,-23.95,-25.23,0,*45
1491808021.77,22713,14.13,73968.0,12.15,-23.99,-25.29,0,*42
1491808023.0,22714,14.13,73970.0,12.17,-24.51,-25.87,0,*40
1491808024.3,22715,14.13,73968.3,12.17,-24.41,-25.71,0,*49
1491808025.56,22716,14.13,73970.3,12.17,-24.21,-25.65,0,*49
1491808026.82,22717,14.13,73968.8,12.17,-23.95,-25.39,0,*49
1491808028.08,22718,14.13,73968.5,12.17,-24.05,-25.55,0,*42
1491808029.38,22719,14.13,73970.8,12.17,-24.25,-25.55,0,*41
1491808030.61,22720,14.13,73972.0,12.17,-24.05,-25.39,0,*43
1491808031.88,22721,14.13,73970.8,12.17,-24.35,-25.75,0,*49
1491808033.14,22722,14.13,73968.3,12.21,-24.47,-25.81,0,*41
1491808034.4,22723,14.13,73968.0,12.21,-24.35,-25.71,0,*4A
1491808035.62,22724,14.13,73972.3,12.19,-24.35,-25.65,0,*43
1491808036.85,22725,14.13,73970.5,12.23,-23.85,-25.13,0,*46
1491808038.08,22726,14.13,73970.0,12.19,-24.35,-25.81,0,*4B
1491808039.36,22727,14.13,73970.5,12.21,-24.67,-25.81,0,*46
1491808040.63,22728,14.13,73968.8,12.21,-24.21,-25.65,0,*41
1491808041.83,22729,14.13,73970.8,12.19,-23.89,-25.19,0,*45
1491808043.07,22730,14.13,73970.0,12.21,-23.75,-25.13,0,*4F
1491808044.29,22731,14.13,73972.3,12.23,-23.69,-24.97,0,*4C
1491808045.55,22732,14.13,73968.5,12.23,-24.15,-25.55,0,*4C
1491808046.76,22733,14.13,73970.5,12.27,-23.79,-25.35,0,*42
1491808048.01,22734,14.13,73968.8,12.23,-23.95,-25.45,0,*44
1491808049.25,22735,14.13,73970.8,12.23,-24.41,-25.65,0,*49
1491808050.47,22736,14.13,73972.3,12.23,-24.31,-25.61,0,*49
1491808051.72,22737,14.13,73970.3,12.23,-24.41,-25.81,0,*41
1491808052.96,22738,14.13,73968.0,12.23,-24.47,-25.81,0,*48
1491808054.18,22739,14.13,73970.3,12.27,-23.75,-25.09,0,*4B
1491808055.41,22740,14.13,73970.0,12.29,-23.75,-25.19,0,*4A
1491808056.65,22741,14.13,73972.3,12.29,-23.59,-25.09,0,*44
1491808057.92,22742,14.13,73974.0,12.29,-24.25,-25.61,0,*45
1491808059.18,22743,14.13,73970.5,12.31,-23.99,-25.45,0,*4B
1491808060.43,22744,14.13,73968.8,12.29,-23.65,-25.09,0,*4E
1491808061.68,22745,14.13,73970.3,12.29,-24.35,-25.61,0,*43
1491808062.93,22746,14.13,73970.5,12.31,-24.15,-25.55,0,*4C
1491808064.19,22747,14.13,73968.3,12.31,-23.53,-24.87,0,*46
1491808065.45,22748,14.13,73970.0,12.31,-23.53,-24.87,0,*49
1491808066.68,22749,14.13,73966.3,12.33,-23.59,-24.97,0,*41
1491808067.97,22750,14.13,73970.0,12.33,-23.53,-24.83,0,*46
1491808069.2,22751,14.13,73968.3,12.33,-23.89,-25.35,0,*4C
1491808070.44,22752,14.13,73970.3,12.35,-24.15,-25.49,0,*40
1491808071.69,22753,14.13,73968.8,12.35,-23.99,-25.45,0,*4E
1491808072.98,22754,14.13,73968.5,12.37,-23.95,-25.55,0,*46
1491808074.19,22755,14.13,73968.8,12.35,-24.77,-26.23,0,*4C
1491808075.4,22756,14.13,73970.5,12.35,-24.51,-26.07,0,*4D
1491808076.64,22757,14.13,73968.3,12.35,-23.99,-25.49,0,*46
1491808077.9,22758,14.13,73968.8,12.35,-23.99,-25.45,0,*45
1491808079.16,22759,14.13,73970.5,12.35,-24.11,-25.45,0,*43
1491808080.45,22760,14.13,73968.5,12.37,-24.25,-25.71,0,*4B
1491808081.68,22761,14.13,73966.3,12.37,-23.79,-25.35,0,*44
1491808082.95,22762,14.13,73970.3,12.37,-24.21,-25.61,0,*4C
1491808084.24,22763,14.13,73974.0,12.37,-24.21,-25.71,0,*4C
1491808085.53,22764,14.13,73974.3,12.37,-24.11,-25.45,0,*4F
1491808086.75,22765,14.13,73968.0,12.39,-23.49,-24.93,0,*40
1491808087.96,22766,14.13,73968.8,12.39,-23.79,-25.35,0,*4D
1491808089.23,22767,14.13,73970.3,12.37,-24.25,-25.61,0,*4D
1491808090.44,22768,14.13,73968.0,12.39,-24.05,-25.39,0,*43
1491808091.68,22769,14.13,73968.0,12.41,-23.89,-25.39,0,*4E
1491808092.94,22770,14.13,73968.5,12.41,-23.53,-24.97,0,*44
1491808094.22,22771,14.13,73970.5,12.41,-23.03,-24.41,0,*4B
1491808095.45,22772,14.13,73972.0,12.43,-22.67,-23.99,0,*4B
1491808096.69,22773,14.13,73968.8,12.43,-22.73,-23.99,0,*4F